Time,TemperatureF,DewpointF,PressureIn,WindDirection,WindDirectionDegrees,WindSpeedMPH,WindSpeedGustMPH,Humidity,HourlyPrecipIn,Conditions,Clouds,dailyrainin,SoftwareType,DateUTC
2013-01-14 00:03:00,11.0,5.0,-100.00,NNE,20,12.0,17.0,77,-99.99,,,-99.99,,2013-01-14 06:03:00,
2013-01-14 00:12:00,11.0,5.0,-100.00,NNE,20,14.0,17.0,77,-99.99,,,-99.99,,2013-01-14 06:12:00,
2013-01-14 00:22:00,11.0,5.0,-100.00,NNE,20,13.0,18.0,77,-99.99,,,-99.99,,2013-01-14 06:22:00,
2013-01-14 00:33:00,11.0,5.0,-100.00,NNE,20,13.0,18.0,77,-99.99,,,-99.99,,2013-01-14 06:33:00,
2013-01-14 00:43:00,11.0,5.0,-100.00,NNE,20,11.0,15.0,78,-99.99,,,-99.99,,2013-01-14 06:43:00,
2013-01-14 00:53:00,10.0,5.0,-100.00,NNE,20,13.0,18.0,78,-99.99,,,-99.99,,2013-01-14 06:53:00,
2013-01-14 01:02:00,10.0,5.0,-100.00,NNE,20,13.0,18.0,78,-99.99,,,-99.99,,2013-01-14 07:02:00,
2013-01-14 01:12:00,10.0,5.0,-100.00,NNE,25,11.0,16.0,79,-99.99,,,-99.99,,2013-01-14 07:12:00,
2013-01-14 01:22:00,10.0,5.0,-100.00,NNE,25,9.0,18.0,79,-99.99,,,-99.99,,2013-01-14 07:22:00,
2013-01-14 01:33:00,10.0,5.0,-100.00,NNE,25,9.0,18.0,79,-99.99,,,-99.99,,2013-01-14 07:33:00,
2013-01-14 01:42:00,10.0,5.0,-100.00,NNE,25,9.0,18.0,79,-99.99,,,-99.99,,2013-01-14 07:42:00,
2013-01-14 01:53:00,10.0,5.0,-100.00,NNE,25,11.0,15.0,80,-99.99,,,-99.99,,2013-01-14 07:53:00,
2013-01-14 02:02:00,10.0,5.0,-100.00,NNE,25,11.0,15.0,80,-99.99,,,-99.99,,2013-01-14 08:02:00,
2013-01-14 02:12:00,10.0,5.0,-100.00,NNE,25,9.0,14.0,80,-99.99,,,-99.99,,2013-01-14 08:12:00,
2013-01-14 02:22:00,10.0,5.0,-100.00,NNE,25,9.0,13.0,80,-99.99,,,-99.99,,2013-01-14 08:22:00,
2013-01-14 02:32:00,10.0,5.0,-100.00,NNE,25,9.0,13.0,80,-99.99,,,-99.99,,2013-01-14 08:32:00,
2013-01-14 02:42:00,10.0,5.0,-100.00,NNE,25,9.0,11.0,80,-99.99,,,-99.99,,2013-01-14 08:42:00,
2013-01-14 02:53:00,10.0,5.0,-100.00,NNE,25,7.0,11.0,81,-99.99,,,-99.99,,2013-01-14 08:53:00,
2013-01-14 03:00:00,9.0,5.0,-100.00,NNE,20,6.0,7.0,81,-99.99,,,-99.99,,2013-01-14 09:00:00,
2013-01-14 03:02:00,10.0,5.0,-100.00,NNE,25,7.0,11.0,81,-99.99,,,-99.99,,2013-01-14 09:02:00,
2013-01-14 03:12:00,10.0,5.0,-100.00,NNE,20,7.0,9.0,81,-99.99,,,-99.99,,2013-01-14 09:12:00,
2013-01-14 03:22:00,10.0,5.0,-100.00,NNE,20,9.0,10.0,81,-99.99,,,-99.99,,2013-01-14 09:22:00,
2013-01-14 03:33:00,9.0,5.0,-100.00,NNE,20,6.0,7.0,81,-99.99,,,-99.99,,2013-01-14 09:33:00,
2013-01-14 03:43:00,9.0,5.0,-100.00,NNE,20,6.0,7.0,81,-99.99,,,-99.99,,2013-01-14 09:43:00,
2013-01-14 03:53:00,9.0,5.0,-100.00,NNE,20,6.0,7.0,81,-99.99,,,-99.99,,2013-01-14 09:53:00,
2013-01-14 04:12:00,9.0,5.0,-100.00,NNE,15,6.0,7.0,82,-99.99,,,-99.99,,2013-01-14 10:12:00,
2013-01-14 04:22:00,10.0,5.0,-100.00,NNE,15,6.0,8.0,82,-99.99,,,-99.99,,2013-01-14 10:22:00,
2013-01-14 04:32:00,10.0,5.0,-100.00,NNE,15,6.0,8.0,82,-99.99,,,-99.99,,2013-01-14 10:32:00,
2013-01-14 04:42:00,10.0,6.0,-100.00,NNE,15,7.0,10.0,83,-99.99,,,-99.99,,2013-01-14 10:42:00,
2013-01-14 04:53:00,10.0,6.0,-100.00,NNE,20,6.0,10.0,84,-99.99,,,-99.99,,2013-01-14 10:53:00,
2013-01-14 05:02:00,10.0,6.0,-100.00,NNE,20,6.0,10.0,84,-99.99,,,-99.99,,2013-01-14 11:02:00,
2013-01-14 05:12:00,9.0,6.0,-100.00,NNE,20,6.0,9.0,84,-99.99,,,-99.99,,2013-01-14 11:12:00,
2013-01-14 05:22:00,9.0,5.0,-100.00,NNE,20,6.0,8.0,84,-99.99,,,-99.99,,2013-01-14 11:22:00,
2013-01-14 05:32:00,9.0,5.0,-100.00,NNE,20,6.0,8.0,84,-99.99,,,-99.99,,2013-01-14 11:32:00,
2013-01-14 05:42:00,9.0,5.0,-100.00,NNE,20,9.0,10.0,84,-99.99,,,-99.99,,2013-01-14 11:42:00,
2013-01-14 05:53:00,9.0,6.0,-100.00,NNE,15,7.0,10.0,85,-99.99,,,-99.99,,2013-01-14 11:53:00,
2013-01-14 06:03:00,9.0,6.0,-100.00,NNE,15,7.0,10.0,85,-99.99,,,-99.99,,2013-01-14 12:03:00,
2013-01-14 06:12:00,9.0,6.0,-100.00,NNE,20,7.0,9.0,85,-99.99,,,-99.99,,2013-01-14 12:12:00,
2013-01-14 06:23:00,9.0,6.0,-100.00,NNE,15,5.0,9.0,85,-99.99,,,-99.99,,2013-01-14 12:23:00,
2013-01-14 06:33:00,9.0,6.0,-100.00,NNE,15,5.0,9.0,85,-99.99,,,-99.99,,2013-01-14 12:33:00,
2013-01-14 06:43:00,9.0,6.0,-100.00,NNE,15,6.0,6.0,85,-99.99,,,-99.99,,2013-01-14 12:43:00,
2013-01-14 06:53:00,9.0,6.0,-100.00,NNE,20,6.0,8.0,85,-99.99,,,-99.99,,2013-01-14 12:53:00,
2013-01-14 07:03:00,9.0,6.0,-100.00,NNE,20,6.0,8.0,85,-99.99,,,-99.99,,2013-01-14 13:03:00,
2013-01-14 07:12:00,9.0,6.0,-100.00,NNE,25,7.0,11.0,85,-99.99,,,-99.99,,2013-01-14 13:12:00,
2013-01-14 07:23:00,9.0,6.0,-100.00,NNE,25,8.0,11.0,85,-99.99,,,-99.99,,2013-01-14 13:23:00,
2013-01-14 07:33:00,8.0,5.0,-100.00,NNE,25,5.0,7.0,85,-99.99,,,-99.99,,2013-01-14 13:33:00,
2013-01-14 07:43:00,8.0,5.0,-100.00,NNE,25,5.0,7.0,85,-99.99,,,-99.99,,2013-01-14 13:43:00,
2013-01-14 07:53:00,8.0,5.0,-100.00,NNE,25,8.0,11.0,85,-99.99,,,-99.99,,2013-01-14 13:53:00,
2013-01-14 08:03:00,8.0,5.0,-100.00,NNE,25,8.0,11.0,85,-99.99,,,-99.99,,2013-01-14 14:03:00,
2013-01-14 08:13:00,9.0,5.0,-100.00,NNE,25,8.0,12.0,85,-99.99,,,-99.99,,2013-01-14 14:13:00,
2013-01-14 08:23:00,9.0,6.0,-100.00,NNE,25,6.0,9.0,85,-99.99,,,-99.99,,2013-01-14 14:23:00,
2013-01-14 08:33:00,10.0,7.0,-100.00,NNE,25,6.0,9.0,85,-99.99,,,-99.99,,2013-01-14 14:33:00,
2013-01-14 08:43:00,10.0,7.0,-100.00,NNE,25,6.0,9.0,85,-99.99,,,-99.99,,2013-01-14 14:43:00,
2013-01-14 08:53:00,11.0,7.0,-100.00,NNE,25,10.0,12.0,84,-99.99,,,-99.99,,2013-01-14 14:53:00,
2013-01-14 09:03:00,11.0,7.0,-100.00,NNE,25,10.0,12.0,84,-99.99,,,-99.99,,2013-01-14 15:03:00,
2013-01-14 09:12:00,12.0,7.0,-100.00,NNE,25,9.0,13.0,82,-99.99,,,-99.99,,2013-01-14 15:12:00,
2013-01-14 09:23:00,12.0,7.0,-100.00,NNE,30,10.0,14.0,80,-99.99,,,-99.99,,2013-01-14 15:23:00,
2013-01-14 09:33:00,12.0,7.0,-100.00,NNE,30,10.0,14.0,80,-99.99,,,-99.99,,2013-01-14 15:33:00,
2013-01-14 09:43:00,13.0,7.0,-100.00,NNE,30,11.0,14.0,79,-99.99,,,-99.99,,2013-01-14 15:43:00,
2013-01-14 09:53:00,13.0,8.0,-100.00,NNE,30,10.0,14.0,78,-99.99,,,-99.99,,2013-01-14 15:53:00,
2013-01-14 10:03:00,13.0,8.0,-100.00,NNE,30,10.0,14.0,78,-99.99,,,-99.99,,2013-01-14 16:03:00,
2013-01-14 10:12:00,14.0,8.0,-100.00,NNE,30,11.0,13.0,76,-99.99,,,-99.99,,2013-01-14 16:12:00,
2013-01-14 10:23:00,14.0,8.0,-100.00,NE,35,9.0,14.0,76,-99.99,,,-99.99,,2013-01-14 16:23:00,
2013-01-14 10:33:00,14.0,8.0,-100.00,NE,35,9.0,14.0,76,-99.99,,,-99.99,,2013-01-14 16:33:00,
2013-01-14 10:43:00,14.0,8.0,-100.00,NE,35,11.0,14.0,76,-99.99,,,-99.99,,2013-01-14 16:43:00,
2013-01-14 10:53:00,14.0,8.0,-100.00,NE,35,10.0,13.0,77,-99.99,,,-99.99,,2013-01-14 16:53:00,
2013-01-14 11:03:00,14.0,8.0,-100.00,NE,35,10.0,13.0,77,-99.99,,,-99.99,,2013-01-14 17:03:00,
2013-01-14 11:12:00,16.0,9.0,-100.00,NE,35,11.0,14.0,76,-99.99,,,-99.99,,2013-01-14 17:12:00,
2013-01-14 11:23:00,16.0,10.0,-100.00,NE,35,11.0,14.0,75,-99.99,,,-99.99,,2013-01-14 17:23:00,
2013-01-14 11:33:00,16.0,10.0,-100.00,NE,35,11.0,14.0,75,-99.99,,,-99.99,,2013-01-14 17:33:00,
2013-01-14 11:43:00,17.0,10.0,-100.00,NNE,30,9.0,14.0,74,-99.99,,,-99.99,,2013-01-14 17:43:00,
2013-01-14 11:54:00,17.0,10.0,-100.00,NNE,30,9.0,13.0,73,-99.99,,,-99.99,,2013-01-14 17:54:00,
2013-01-14 12:03:00,17.0,10.0,-100.00,NNE,30,9.0,13.0,73,-99.99,,,-99.99,,2013-01-14 18:03:00,
2013-01-14 12:13:00,18.0,10.0,-100.00,NE,35,9.0,12.0,73,-99.99,,,-99.99,,2013-01-14 18:13:00,
2013-01-14 12:23:00,18.0,10.0,-100.00,NE,35,8.0,11.0,71,-99.99,,,-99.99,,2013-01-14 18:23:00,
2013-01-14 12:33:00,18.0,10.0,-100.00,NE,35,8.0,11.0,71,-99.99,,,-99.99,,2013-01-14 18:33:00,
2013-01-14 12:43:00,19.0,11.0,-100.00,NE,35,7.0,10.0,70,-99.99,,,-99.99,,2013-01-14 18:43:00,
2013-01-14 12:53:00,19.0,11.0,-100.00,NE,35,8.0,11.0,69,-99.99,,,-99.99,,2013-01-14 18:53:00,
2013-01-14 13:03:00,19.0,11.0,-100.00,NE,35,8.0,11.0,69,-99.99,,,-99.99,,2013-01-14 19:03:00,
2013-01-14 13:12:00,21.0,11.0,-100.00,NE,35,6.0,10.0,67,-99.99,,,-99.99,,2013-01-14 19:12:00,
2013-01-14 13:22:00,22.0,12.0,-100.00,NE,35,5.0,10.0,65,-99.99,,,-99.99,,2013-01-14 19:22:00,
2013-01-14 13:33:00,22.0,12.0,-100.00,NE,35,5.0,10.0,65,-99.99,,,-99.99,,2013-01-14 19:33:00,
2013-01-14 13:43:00,22.0,11.0,-100.00,NNE,30,6.0,9.0,62,-99.99,,,-99.99,,2013-01-14 19:43:00,
2013-01-14 13:53:00,23.0,11.0,-100.00,NNE,30,5.0,9.0,60,-99.99,,,-99.99,,2013-01-14 19:53:00,
2013-01-14 14:03:00,23.0,11.0,-100.00,NNE,30,5.0,9.0,60,-99.99,,,-99.99,,2013-01-14 20:03:00,
2013-01-14 14:13:00,24.0,11.0,-100.00,NNE,30,6.0,11.0,57,-99.99,,,-99.99,,2013-01-14 20:13:00,
2013-01-14 14:22:00,24.0,10.0,-100.00,NNE,25,5.0,9.0,55,-99.99,,,-99.99,,2013-01-14 20:22:00,
2013-01-14 14:33:00,24.0,10.0,-100.00,NNE,25,5.0,9.0,55,-99.99,,,-99.99,,2013-01-14 20:33:00,
2013-01-14 14:43:00,24.0,10.0,-100.00,NNE,30,6.0,10.0,54,-99.99,,,-99.99,,2013-01-14 20:43:00,
2013-01-14 14:53:00,24.0,9.0,-100.00,NNE,25,5.0,11.0,52,-99.99,,,-99.99,,2013-01-14 20:53:00,
2013-01-14 15:03:00,24.0,9.0,-100.00,NNE,25,5.0,11.0,52,-99.99,,,-99.99,,2013-01-14 21:03:00,
2013-01-14 15:12:00,24.0,9.0,-100.00,NNE,25,5.0,9.0,51,-99.99,,,-99.99,,2013-01-14 21:12:00,
2013-01-14 15:23:00,24.0,8.0,-100.00,NNE,30,4.0,9.0,50,-99.99,,,-99.99,,2013-01-14 21:23:00,
2013-01-14 15:33:00,24.0,8.0,-100.00,NNE,30,4.0,9.0,50,-99.99,,,-99.99,,2013-01-14 21:33:00,
2013-01-14 15:42:00,25.0,9.0,-100.00,NNE,30,3.0,7.0,49,-99.99,,,-99.99,,2013-01-14 21:42:00,
2013-01-14 15:53:00,25.0,8.0,-100.00,NNE,30,4.0,6.0,48,-99.99,,,-99.99,,2013-01-14 21:53:00,
2013-01-14 16:03:00,25.0,8.0,-100.00,NNE,30,4.0,6.0,48,-99.99,,,-99.99,,2013-01-14 22:03:00,
2013-01-14 16:12:00,25.0,8.0,-100.00,NE,35,0.0,4.0,48,-99.99,,,-99.99,,2013-01-14 22:12:00,
2013-01-14 16:23:00,25.0,8.0,-100.00,NNE,30,2.0,4.0,48,-99.99,,,-99.99,,2013-01-14 22:23:00,
2013-01-14 16:33:00,25.0,8.0,-100.00,NNE,30,2.0,4.0,48,-99.99,,,-99.99,,2013-01-14 22:33:00,
2013-01-14 16:43:00,25.0,8.0,-100.00,NNE,30,2.0,4.0,48,-99.99,,,-99.99,,2013-01-14 22:43:00,
2013-01-14 20:00:00,-999.0,-99.9,-100.00,NNE,20,4.0,5.0,-999,-99.99,,,-99.99,,2013-01-15 02:00:00,
2013-01-14 21:33:00,14.0,9.0,-100.00,NNE,25,3.0,4.0,78,-99.99,,,-99.99,,2013-01-15 03:33:00,
2013-01-14 21:42:00,14.0,9.0,-100.00,NNE,15,0.0,4.0,78,-99.99,,,-99.99,,2013-01-15 03:42:00,
2013-01-14 21:53:00,14.0,9.0,-100.00,NNE,20,1.0,3.0,79,-99.99,,,-99.99,,2013-01-15 03:53:00,
2013-01-14 22:02:00,14.0,9.0,-100.00,NNE,20,1.0,3.0,79,-99.99,,,-99.99,,2013-01-15 04:02:00,
2013-01-14 22:12:00,14.0,9.0,-100.00,NNE,30,1.0,3.0,79,-99.99,,,-99.99,,2013-01-15 04:12:00,
2013-01-14 22:22:00,14.0,9.0,-100.00,NNE,30,1.0,3.0,79,-99.99,,,-99.99,,2013-01-15 04:22:00,
2013-01-14 22:32:00,14.0,9.0,-100.00,NNE,30,2.0,4.0,79,-99.99,,,-99.99,,2013-01-15 04:32:00,
2013-01-14 22:42:00,14.0,9.0,-100.00,NNE,30,2.0,4.0,79,-99.99,,,-99.99,,2013-01-15 04:42:00,
2013-01-14 22:52:00,14.0,9.0,-100.00,NNE,25,1.0,1.0,79,-99.99,,,-99.99,,2013-01-15 04:52:00,
2013-01-14 23:03:00,14.0,9.0,-100.00,NNE,25,1.0,1.0,79,-99.99,,,-99.99,,2013-01-15 05:03:00,
2013-01-14 23:12:00,14.0,9.0,-100.00,NNE,25,1.0,3.0,79,-99.99,,,-99.99,,2013-01-15 05:12:00,
2013-01-14 23:22:00,14.0,9.0,-100.00,NNE,25,1.0,4.0,78,-99.99,,,-99.99,,2013-01-15 05:22:00,
2013-01-14 23:33:00,14.0,9.0,-100.00,NNE,25,1.0,4.0,78,-99.99,,,-99.99,,2013-01-15 05:33:00,
2013-01-14 23:42:00,14.0,9.0,-100.00,NNE,25,2.0,4.0,78,-99.99,,,-99.99,,2013-01-15 05:42:00,
2013-01-14 23:53:00,13.0,8.0,-100.00,NNE,30,4.0,5.0,78,-99.99,,,-99.99,,2013-01-15 05:53:00,